Location: Bh?mavarapp?du
(16.7041°N, 80.6518°E)
Time: 02:03:01
(UTC+00:00)

SL-4 R/B - Pass Details

Date: 21 April 2021
Orbit: 427 x 663 km, 51.6° (Epoch: 08 May)

Event Time Altitude Azimuth Distance (km) Brightness Sun altitude
Rises 23:29:52 0° 317° (NW) 2,970 5.5 -11.9°
Reaches altitude 10° 23:32:16 10° 314° (NW) 2,042 4.6 -11.3°
Maximum altitude 23:36:55 62° 234° (SW) 701 2.3 -10.2°
Drops below altitude 10° 23:41:19 10° 153° (SSE) 1,929 4.9 -9.2°
Sets 23:43:32 0° 150° (SSE) 2,791 5.8 -8.7°
